Hurghada, Egypt

12:33 AM EET on January 20, 2017 (GMT +0200)
Hurghada International

Weather History for HEGN - October, 2011

Change the Weather History Date:

Monday, October 17, 2011

  Actual Average Record
Temperature  
Mean Temperature 80 °F -  
Max Temperature 88 °F 80 °F 96 °F (2010)
Min Temperature 71 °F 66 °F 68 °F (2008)
Cooling Degree Days 14    
Growing Degree Days 30 (Base 50)    
Moisture  
Dew Point 55 °F    
Average Humidity 42    
Maximum Humidity 60    
Minimum Humidity 22    
Precipitation  
Precipitation 0.00 in - - ()
Sea Level Pressure  
Sea Level Pressure 29.88 in    
Wind  
Wind Speed 15 mph ()    
Max Wind Speed 24 mph    
Max Gust Speed -    
Visibility 5.0 miles    
Events      
Averages and records for this station are not official NWS values.
T = Trace of Precipitation, MM = Missing Value Source: Averaged Metar Reports

Daily Weather History Graph

Daily Weather History Graph

Search for Another Location

Airport or City:

Trip Planner

Search our weather history database for the weather conditions in past years. The results will help you decide how hot, cold, wet, or windy it might be!

Date:

Astronomy

Oct. 17, 2011 Rise Set
Actual Time 5:45 AM EET 5:15 PM EET
Civil Twilight 5:22 AM EET 5:38 PM EET
Nautical Twilight 4:55 AM EET 6:05 PM EET
Astronomical Twilight 4:28 AM EET 6:32 PM EET
Moon 8:58 PM EET (10/17) 10:13 AM EET (10/17)
Length of Visible Light 12h 16m
Length of Day
11h 29m
Waning Gibbous, 76% of the Moon is Illuminated
Oct 17
Waning Gibbous
Oct 20
Last Quarter
Oct 26
New
Nov 2
First Quarter
Nov 10
Full

Hourly Weather History & Observations

Time (EET) Temp. Heat Index Dew Point Humidity Pressure Visibility Wind Dir Wind Speed Gust Speed Precip Events Conditions
12:00 AM 77.0 °F - 53.6 °F 44% 29.89 in - WNW 16.1 mph - N/A   Clear
1:00 AM 75.2 °F - 53.6 °F 47% 29.86 in - NW 15.0 mph - N/A   Clear
2:00 AM 75 °F - 53 °F 36% 29.88 in 2 mi WNW 15.0 mph - -  
2:00 AM 75.2 °F - 53.6 °F 47% 29.86 in - WNW 15.0 mph - N/A   Clear
3:00 AM 75.2 °F - 55.4 °F 50% 29.89 in - NW 12.7 mph - N/A   Clear
4:00 AM 73.4 °F - 53.6 °F 50% 29.89 in - NW 11.5 mph - N/A   Clear
5:00 AM 71.6 °F - 55.4 °F 57% 29.89 in - NW 11.5 mph - N/A   Clear
6:00 AM 71.6 °F - 57.2 °F 60% 29.89 in - NW 12.7 mph - N/A   Clear
7:00 AM 75.2 °F - 59.0 °F 57% 29.89 in - NW 15.0 mph - N/A   Clear
8:00 AM 77 °F - 59 °F 44% 29.91 in 6 mi WNW 17.3 mph - -  
8:00 AM 77.0 °F - 59.0 °F 54% 29.89 in - WNW 17.3 mph - N/A   Clear
9:00 AM 80.6 °F 81.1 °F 59.0 °F 48% 29.92 in - NW 16.1 mph - N/A   Clear
10:00 AM 84.2 °F 83.8 °F 59.0 °F 42% 29.89 in - North 23.0 mph - N/A   Clear
11:00 AM 86.0 °F 85.4 °F 59.0 °F 40% 29.89 in - North 23.0 mph - N/A   Clear
12:00 PM 86.0 °F 86.6 °F 62.6 °F 45% 29.86 in - North 21.9 mph - N/A   Clear
1:00 PM 87.8 °F 89.4 °F 64.4 °F 46% 29.83 in - North 24.2 mph - N/A   Clear
2:00 PM 88 °F - 61 °F 30% 29.83 in 6 mi North 21.9 mph - -  
2:00 PM 87.8 °F 87.6 °F 60.8 °F 40% 29.83 in - North 21.9 mph - N/A   Clear
3:00 PM 87.8 °F 87.6 °F 60.8 °F 40% 29.83 in - North 18.4 mph - N/A   Clear
4:00 PM 86.0 °F 84.9 °F 57.2 °F 37% 29.83 in - North 18.4 mph - N/A   Clear
5:00 PM 86.0 °F 85.4 °F 59.0 °F 40% 29.83 in - North 16.1 mph - N/A   Clear
6:00 PM 84.2 °F 83.0 °F 55.4 °F 37% 29.86 in - North 12.7 mph - N/A   Clear
7:00 PM 84.2 °F - 44.6 °F 25% 29.89 in - NNW 11.5 mph - N/A   Clear
8:00 PM 81 °F - 48 °F 22% 29.92 in 6 mi NW 17.3 mph - -  
8:00 PM 80.6 °F - 48.2 °F 32% 29.92 in - NW 17.3 mph - N/A   Clear
9:00 PM 80.6 °F - 46.4 °F 30% 29.92 in - WNW 13.8 mph - N/A   Clear
10:00 PM 80.6 °F - 46.4 °F 30% 29.92 in - WNW 16.1 mph - N/A   Clear
11:00 PM 78.8 °F - 46.4 °F 32% 29.92 in - NW 17.3 mph - N/A   Clear